Regional Weather Roundup
Issued by NWS Bismarck, ND

Home | Current Version | Previous Version | Text Only | Print | Product List | Glossary On
Versions: 1 2 3 4 5 6 7 8 9 10 11 12 13 14 15 16 17 18 19 20 21 22 23 24 25 26 27 28 29 30 31 32 33 34 35 36 37 38 39 40 41 42 43 44 45 46 47 48 49 50
000
ASUS43 KBIS 160710
RWRBIS

NWR BROADCAST TEXT
NATIONAL WEATHER SERVICE BISMARCK ND
100 AM CST SAT DEC 16 2017

NOTE: "FAIR" INDICATES FEW OR NO CLOUDS BELOW 12,000 FEET WITH NO
SIGNIFICANT WEATHER AND/OR OBSTRUCTIONS TO VISIBILITY.


CITY           SKY/WX    TMP DP  RH WIND       PRES   REMARKS
WILLISTON        N/A    N/A N/A N/A MISG      29.70R
MINOT          CLOUDY    40  35  83 W16       29.59R
MINOT AFB      CLOUDY    38  34  84 NW15      29.58R
BISMARCK       LGT RAIN  38  34  85 NW7       29.64R
DICKINSON      CLOUDY    36  24  62 NW9       29.66R
GARRISON         N/A     38  36  92 NW12      29.61R
HETTINGER ARPT PTCLDY    32  21  64 NW9       29.68R
JAMESTOWN      CLOUDY    35  29  78 NW10      29.57R
CARRINGTON     PTSUNNY   36  32  87 NW13      29.60R
HAZEN          MIX PCPN  39  37  93 NW14      29.66R
LINTON           N/A     37  25  60 W7        29.64R
MANDAN         CLOUDY    37  36  93 NW10      29.64R
OAKES            N/A     34  32  93 NW8       29.58R
RUGBY          CLOUDY    27  28 100 E3        29.58R FOG
STANLEY        CLOUDY    36  36 100 NW15G22   29.65R
TIOGA          CLOUDY    36  36 100 W12       29.66R
WATFORD CITY   CLOUDY    37  36  93 NW10      29.68R
$$

CITY           SKY/WX    TMP DP  RH WIND       PRES   REMARKS
GRAND FORKS    CLOUDY    21  19  92 E12       29.65R WCI   9
GRAND FORKS AF CLOUDY    21  18  90 E6        29.65R WCI  13
DEVILS LAKE    CLOUDY    23  21  92 E9        29.60R WCI  13
FARGO          CLOUDY    29  26  89 E6        29.60R
CANDO          CLOUDY    21  21 100 E7        29.62R WCI  13
CAVALIER       CLOUDY    16  16 100 SE5       29.69R FOG     WCI   9
GRAFTON        CLOUDY    18  16  93 E8        29.69R WCI   7
GWINNER          N/A     30  28  93 W8        29.58R
LANGDON        CLOUDY    18  18 100 MISG      29.61S
ROLLA          CLOUDY    21  21 100 S7        29.58S WCI  13
WALHALLA       FAIR      16  16 100 E7        29.69R WCI   6
$$

CITY           SKY/WX    TMP DP  RH WIND       PRES   REMARKS
ABERDEEN       CLOUDY    33  26  75 NW6       29.60S
MOBRIDGE       PTCLDY    37  24  59 NW10      29.62R
BUFFALO          N/A     36  21  54 NW14      29.64R
RAPID CITY     CLOUDY    38  15  39 N12       29.70R
GLASGOW        CLOUDY    33  30  88 W12       29.80R
SIDNEY         CLOUDY    38  33  82 NW20      29.73R
WOLF POINT     CLOUDY    39  31  72 W13       29.78R
GLENDIVE       MIX PCPN  37  33  85 NW14      29.75S
MILES CITY     CLOUDY    36  33  89 NW9       29.81R
BAKER          MIX PCPN  36  33  89 NW15      29.74R
$$

CITY           SKY/WX    TMP DP  RH WIND       PRES   REMARKS
BILLINGS       LGT RAIN  42  29  59 N14       29.84R
GREAT FALLS    CLOUDY    32  26  78 E6        29.89R
REGINA         MOCLDY    34  30  86 NW14G20   29.65R
ESTEVAN        CLOUDY    36  30  80 NW15G21   29.62R
$$




USA.gov is the U.S. government's official web portal to all federal, state and local government web resources and services.